(75717) = 2000 AU120

Discovered at Socorro on 2000-01-05 by LINEAR.

Orbit

Orbit type: Main Belt

Note: WebGL enabled browser required.

epoch2024-03-31.0
epoch JD2460400.5
perihelion date2022-05-10.64814
perihelion JD2459710.14814
argument of perihelion (°)268.86223
ascending node (°)153.02348
inclination (°)8.92919
eccentricity0.1451040
perihelion distance (AU)2.3594549
Tisserand w.r.t. Jupiter3.3
ΔV w.r.t. Earth (km/sec)10.0
semimajor axis (AU)2.7599321
mean anomaly (°)148.39755
mean daily motion (°/day)0.21495930
aphelion distance (AU)3.160
period (years)4.59
P-vector [x]0.46573553
P-vector [y]0.86104877
P-vector [z]0.20417009
Q-vector [x]-0.88211847
Q-vector [y]0.43337608
Q-vector [z]0.18453232
absolute magnitude15.37
phase slope0.15
uncertainty0
referenceMPEC 2024-F28
observations used1045
oppositions18
arc length (days)9327
first opposition used1998
last opposition used2024
residual rms (arc-secs)0.70
perturbers coarse indicatorM-v
perturbers precise indicator003Ek
first observation date used1998-08-30.0
last observation date used2024-03-13.0
computer nameMPCLINUX
JD of orbit computation2456847.736627
perihelion JD uncertainty (days)7.3592E-05
argument of perihelion uncertainty (°)2.8168E-05
ascending node uncertainty (°)2.2254E-05
inclination uncertainty (°)4.6052E-06
eccentricity uncertainty 3.3731E-08
perihelion distance uncertainty (AU)9.1123E-08
Minimum Orbit Intersection Distances (in AU)
for orbit epoch: 2460400.5, reference: E2024-GD4
Mercury2.05387
Venus1.64767
Earth1.39302
Mars0.87907
Jupiter2.20785
Saturn6.57696
Uranus15.542
Neptune27.3078

Observations

1060 total observations over interval: 1998 08 30.32457 – 2024 03 13.640013
These data are available for download (format description).

Date (UT) J2000 RA J2000 Dec Magn Location Ref
1998 08 30.32457 23 25 04.82 -06 47 12.3 18.7 R 699 – Lowell Observatory-LONEOS MPS 51706
1998 08 30.34694 23 25 03.99 -06 47 24.6   699 – Lowell Observatory-LONEOS MPS 51706
1998 08 30.36929 23 25 02.98 -06 47 35.1   699 – Lowell Observatory-LONEOS MPS 51706
1998 09 26.68506 23 05 17.44 -10 33 43.2   327 – Peking Observatory, Xinglong Station MPS 51706
1998 09 26.69244 23 05 17.15 -10 33 45.6   327 – Peking Observatory, Xinglong Station MPS 51706
1998 09 26.69965 23 05 16.85 -10 33 48.0 19.4   327 – Peking Observatory, Xinglong Station MPS 51706
2000 01 05.30454 08 42 55.48 +10 12 16.8 19.0   704 – Lincoln Laboratory ETS, New Mexico MPS 9357
2000 01 05.33377 08 42 54.21 +10 12 24.6 19.7   704 – Lincoln Laboratory ETS, New Mexico MPS 9357
2000 01 05.34835 08 42 53.66 +10 12 27.4 19.5   704 – Lincoln Laboratory ETS, New Mexico MPS 9357
2000 01 05.36295 08 42 52.97 +10 12 32.0 19.2   704 – Lincoln Laboratory ETS, New Mexico MPS 9357
2000 01 07.36965 08 41 29.60 +10 21 36.4 18.8   704 – Lincoln Laboratory ETS, New Mexico MPS 9357
2000 01 07.38480 08 41 28.97 +10 21 40.8 19.5   704 – Lincoln Laboratory ETS, New Mexico MPS 9357
2000 01 07.40135 08 41 28.21 +10 21 45.6 19.0   704 – Lincoln Laboratory ETS, New Mexico MPS 9357
2000 01 07.41614 08 41 27.56 +10 21 49.8 19.1   704 – Lincoln Laboratory ETS, New Mexico MPS 9357
2000 01 07.43093 08 41 26.89 +10 21 53.7 19.3   704 – Lincoln Laboratory ETS, New Mexico MPS 9357
2000 02 02.25422 08 19 42.88 +13 00 47.9 18.5   704 – Lincoln Laboratory ETS, New Mexico MPS 10182
2000 02 02.26862 08 19 42.13 +13 00 53.6 18.6   704 – Lincoln Laboratory ETS, New Mexico MPS 10182
2000 02 02.28313 08 19 41.35 +13 00 59.6 18.9   704 – Lincoln Laboratory ETS, New Mexico MPS 10182
2000 02 02.29747 08 19 40.63 +13 01 05.3 19.0   704 – Lincoln Laboratory ETS, New Mexico MPS 10182
2000 02 02.31219 08 19 39.89 +13 01 11.8 18.7   704 – Lincoln Laboratory ETS, New Mexico MPS 10182
2000 02 04.23455 08 18 03.66 +13 14 34.8 18.5   704 – Lincoln Laboratory ETS, New Mexico MPS 10182
2000 02 04.24870 08 18 02.92 +13 14 41.5 18.6   704 – Lincoln Laboratory ETS, New Mexico MPS 10182
2000 02 04.29125 08 18 00.74 +13 14 59.8 18.8   704 – Lincoln Laboratory ETS, New Mexico MPS 10182
2001 05 24.265840 14 12 16.276 -00 59 56.04 20.31 V 645 – Apache Point-Sloan Digital Sky Survey MPS 79638
2001 05 24.269312 14 12 16.155 -00 59 55.73 21.16   645 – Apache Point-Sloan Digital Sky Survey MPS 79638
2003 10 16.32896 03 11 55.22 +04 11 31.3 18.7 R 699 – Lowell Observatory-LONEOS MPS 87772
2003 10 16.34569 03 11 54.70 +04 11 23.9   699 – Lowell Observatory-LONEOS MPS 87772
2003 10 16.36224 03 11 54.02 +04 11 17.6   699 – Lowell Observatory-LONEOS MPS 87772
2003 10 16.37899 03 11 53.49 +04 11 11.5   699 – Lowell Observatory-LONEOS MPS 87772
2003 10 16.51193 03 11 49.32 +04 10 15.0 20.9   608 – Haleakala-AMOS MPS 107184
2003 10 16.52274 03 11 48.86 +04 10 10.1 19.8   608 – Haleakala-AMOS MPS 107184
2003 10 16.53323 03 11 48.52 +04 10 06.1 19.6   608 – Haleakala-AMOS MPS 107184
2003 10 20.32013 03 09 36.67 +03 43 20.4 18.5   704 – Lincoln Laboratory ETS, New Mexico MPS 87772
2003 10 20.33213 03 09 36.15 +03 43 16.4 18.9   704 – Lincoln Laboratory ETS, New Mexico MPS 87772
2003 10 20.34354 03 09 35.75 +03 43 11.3 18.9   704 – Lincoln Laboratory ETS, New Mexico MPS 87772
2003 10 20.35497 03 09 35.26 +03 43 05.3 18.7   704 – Lincoln Laboratory ETS, New Mexico MPS 87772
2003 10 20.36653 03 09 34.76 +03 43 00.2 19.0   704 – Lincoln Laboratory ETS, New Mexico MPS 87772
2003 11 05.26633 02 57 43.51 +02 01 12.5 19.0 R 683 – Goodricke-Pigott Observatory, Tucson MPS 90400
2003 11 05.27975 02 57 42.99 +02 01 09.1 19.4 R 683 – Goodricke-Pigott Observatory, Tucson MPS 90400
2003 11 05.29313 02 57 42.09 +02 01 03.2 19.7 R 683 – Goodricke-Pigott Observatory, Tucson MPS 90400
2003 11 20.22621 02 45 41.85 +01 00 20.5 19.0 V 703 – Catalina Sky Survey MPS 90896
2003 11 20.23977 02 45 41.20 +01 00 18.1 18.4 V 703 – Catalina Sky Survey MPS 90896
2003 11 20.25329 02 45 40.53 +01 00 16.0 18.5 V 703 – Catalina Sky Survey MPS 90896
2003 11 20.254360 02 45 40.509 +01 00 16.06 18.62 V 645 – Apache Point-Sloan Digital Sky Survey MPS 136380
2003 11 20.257832 02 45 40.346 +01 00 15.54 19.50   645 – Apache Point-Sloan Digital Sky Survey MPS 136380
2003 11 20.26682 02 45 39.87 +01 00 13.5 17.9 V 703 – Catalina Sky Survey MPS 90896
2003 11 23.24967 02 43 31.01 +00 53 49.5 18.2 R 699 – Lowell Observatory-LONEOS MPS 92623
2003 11 23.26291 02 43 30.41 +00 53 48.2   699 – Lowell Observatory-LONEOS MPS 92623
2003 11 23.27613 02 43 29.83 +00 53 46.2   699 – Lowell Observatory-LONEOS MPS 92623
2003 11 23.28929 02 43 29.26 +00 53 45.2   699 – Lowell Observatory-LONEOS MPS 92623
2003 11 29.19365 02 39 42.29 +00 47 17.6 18.4   704 – Lincoln Laboratory ETS, New Mexico MPS 92623
2003 11 29.20680 02 39 41.81 +00 47 17.5 18.7   704 – Lincoln Laboratory ETS, New Mexico MPS 92623
2003 11 29.21994 02 39 41.29 +00 47 17.5 19.1   704 – Lincoln Laboratory ETS, New Mexico MPS 92623
2003 11 29.23321 02 39 40.81 +00 47 16.6 18.9   704 – Lincoln Laboratory ETS, New Mexico MPS 92623
2003 11 29.24627 02 39 40.39 +00 47 16.4 18.7   704 – Lincoln Laboratory ETS, New Mexico MPS 92623
2003 12 25.11283 02 33 13.28 +01 50 39.1 21.2 R 683 – Goodricke-Pigott Observatory, Tucson MPS 95679
2003 12 25.12623 02 33 13.39 +01 50 43.6 20.8 R 683 – Goodricke-Pigott Observatory, Tucson MPS 95679
2003 12 25.13965 02 33 13.43 +01 50 48.3 20.6 R 683 – Goodricke-Pigott Observatory, Tucson MPS 95679
2004 02 14.15567 03 09 52.11 +08 12 21.4 20.4 V 703 – Catalina Sky Survey MPS 99864
2004 02 14.16949 03 09 52.99 +08 12 26.8 19.9 V 703 – Catalina Sky Survey MPS 99864
2004 02 14.18324 03 09 54.10 +08 12 34.2 19.8 V 703 – Catalina Sky Survey MPS 99864
2004 02 14.19699 03 09 55.02 +08 12 43.0 20.4 V 703 – Catalina Sky Survey MPS 99864
2005 03 03.18342 11 31 05.96 +06 51 45.8 19.5 V 691 – Steward Observatory, Kitt Peak-Spacewatch MPS 127635
2005 03 03.21595 11 31 04.44 +06 52 01.8 19.5 V 691 – Steward Observatory, Kitt Peak-Spacewatch MPS 127635
2005 03 03.24209 11 31 03.19 +06 52 14.6 19.3 V 691 – Steward Observatory, Kitt Peak-Spacewatch MPS 127635
2005 03 03.33503 11 30 58.83 +06 52 58.4 18.3 R 703 – Catalina Sky Survey MPS 127635
2005 03 03.34532 11 30 58.27 +06 53 04.8 19.1 R 703 – Catalina Sky Survey MPS 127635
2005 03 03.35558 11 30 57.81 +06 53 08.9 18.9 R 703 – Catalina Sky Survey MPS 127635
2005 03 03.36591 11 30 57.31 +06 53 14.0 19.1 R 703 – Catalina Sky Survey MPS 127635
2005 03 04.35997 11 30 11.46 +07 01 22.7 19.0   704 – Lincoln Laboratory ETS, New Mexico MPS 127635
2005 03 04.37142 11 30 10.91 +07 01 28.4 19.4   704 – Lincoln Laboratory ETS, New Mexico MPS 127635
2005 03 04.38286 11 30 10.45 +07 01 34.2 19.4   704 – Lincoln Laboratory ETS, New Mexico MPS 127635
2005 03 04.39554 11 30 09.82 +07 01 39.9 19.3   704 – Lincoln Laboratory ETS, New Mexico MPS 127635
2005 03 04.40720 11 30 09.30 +07 01 46.4 19.6   704 – Lincoln Laboratory ETS, New Mexico MPS 127635
2005 03 08.24188 11 27 09.95 +07 32 58.8 18.3 R 699 – Lowell Observatory-LONEOS MPS 128754
2005 03 08.26131 11 27 09.03 +07 33 08.7   699 – Lowell Observatory-LONEOS MPS 128754
2005 03 08.28078 11 27 08.04 +07 33 18.1   699 – Lowell Observatory-LONEOS MPS 128754
2005 03 08.30026 11 27 07.13 +07 33 27.8   699 – Lowell Observatory-LONEOS MPS 128754
2005 03 09.24659 11 26 22.50 +07 41 05.9 18.6 R 699 – Lowell Observatory-LONEOS MPS 128754
2005 03 09.26605 11 26 21.53 +07 41 15.8   699 – Lowell Observatory-LONEOS MPS 128754
2005 03 09.28549 11 26 20.60 +07 41 25.4   699 – Lowell Observatory-LONEOS MPS 128754
2005 03 09.29060 11 26 20.35 +07 41 27.7 18.8   704 – Lincoln Laboratory ETS, New Mexico MPS 128754
2005 03 09.30358 11 26 19.71 +07 41 33.9 19.3   704 – Lincoln Laboratory ETS, New Mexico MPS 128754
2005 03 09.30492 11 26 19.60 +07 41 34.0   699 – Lowell Observatory-LONEOS MPS 128754
2005 03 09.31574 11 26 19.08 +07 41 39.6 19.2   704 – Lincoln Laboratory ETS, New Mexico MPS 128754
2005 03 09.32790 11 26 18.48 +07 41 45.6 19.2   704 – Lincoln Laboratory ETS, New Mexico MPS 128754
2005 03 09.34028 11 26 17.92 +07 41 51.8 19.2   704 – Lincoln Laboratory ETS, New Mexico MPS 128754
